• In Hungary
  • List of Countries
  • For 7 days
  • Water Temperature
  • Satellite Maps
  • Weather Map
  • News
  • Weather Widgets
  • user-avatar
    Login

    Hourly Weather Pretki

    Today, 24 November, Friday

    Time Temperature Precipitation Wind Pressure Humidity
    00:00 +4°C° 0 mm 6 mps 755 mmHg 84%
    01:00 +4°C° 0 mm 6 mps 755 mmHg 84%
    02:00 +5°C° 0 mm 5 mps 755 mmHg 85%
    03:00 +3°C° 0 mm 5 mps 756 mmHg 87%
    04:00 +3°C° 0 mm 5 mps 756 mmHg 88%
    05:00 +3°C° 0 mm 5 mps 756 mmHg 88%
    06:00 +5°C° 0 mm 5 mps 756 mmHg 89%
    07:00 +5°C° 0 mm 5 mps 756 mmHg 89%
    08:00 +5°C° 0 mm 5 mps 756 mmHg 89%
    09:00 +6°C° 0 mm 5 mps 756 mmHg 88%
    10:00 +6°C° 0 mm 5 mps 757 mmHg 87%
    11:00 +7°C° 0 mm 5 mps 756 mmHg 85%
    12:00 +7°C° 0 mm 5 mps 756 mmHg 84%
    13:00 +8°C° 0 mm 6 mps 756 mmHg 82%
    14:00 +8°C° 0 mm 6 mps 755 mmHg 83%
    15:00 +6°C° 0 mm 7 mps 755 mmHg 84%
    16:00 +6°C° 0 mm 8 mps 754 mmHg 85%
    17:00 +6°C° 0 mm 8 mps 754 mmHg 84%
    18:00 +6°C° 0 mm 8 mps 754 mmHg 83%
    19:00 +6°C° 0 mm 8 mps 754 mmHg 83%
    20:00 +7°C° 0 mm 8 mps 754 mmHg 84%
    21:00 +7°C° 0 mm 8 mps 754 mmHg 85%
    22:00 +8°C° 0 mm 7 mps 754 mmHg 86%
    23:00 +8°C° 0 mm 7 mps 755 mmHg 87%

    Tomorrow, 25 November, Saturday

    Time Temperature Precipitation Wind Pressure Humidity
    00:00 +8°C° 0 mm 6 mps 755 mmHg 87%
    01:00 +8°C° 0 mm 5 mps 756 mmHg 88%
    02:00 +7°C° 0 mm 4 mps 756 mmHg 89%
    03:00 +6°C° 0 mm 4 mps 756 mmHg 90%
    04:00 +5°C° 0 mm 3 mps 757 mmHg 91%
    05:00 +6°C° 0 mm 2 mps 757 mmHg 91%
    06:00 +7°C° 0 mm 1 mps 757 mmHg 92%
    07:00 +6°C° 0 mm 1 mps 757 mmHg 92%
    08:00 +7°C° 0.1 mm 1 mps 757 mmHg 91%
    09:00 +6°C° 0.1 mm 2 mps 757 mmHg 90%
    10:00 +7°C° 0.1 mm 2 mps 756 mmHg 89%
    11:00 +7°C° 0.7 mm 3 mps 756 mmHg 90%
    12:00 +6°C° 0.7 mm 4 mps 755 mmHg 91%
    13:00 +6°C° 0.7 mm 5 mps 754 mmHg 92%
    14:00 +6°C° 0.2 mm 5 mps 753 mmHg 92%
    15:00 +6°C° 0.2 mm 5 mps 753 mmHg 91%
    16:00 +6°C° 0.2 mm 5 mps 752 mmHg 91%
    17:00 +6°C° 0 mm 5 mps 751 mmHg 89%
    18:00 +5°C° 0 mm 6 mps 750 mmHg 87%
    19:00 +5°C° 0 mm 6 mps 750 mmHg 85%
    20:00 +5°C° 0.3 mm 6 mps 750 mmHg 86%
    21:00 +5°C° 0.3 mm 6 mps 749 mmHg 87%
    22:00 +5°C° 0.3 mm 6 mps 749 mmHg 88%
    23:00 +5°C° 0.4 mm 7 mps 750 mmHg 87%

    Day after tomorrow, 26 November, Sunday

    Time Temperature Precipitation Wind Pressure Humidity
    00:00 +5°C° 0.4 mm 8 mps 750 mmHg 86%
    01:00 +5°C° 0.4 mm 9 mps 751 mmHg 85%
    02:00 +3°C° 0.1 mm 9 mps 752 mmHg 82%
    03:00 +3°C° 0.1 mm 9 mps 752 mmHg 79%
    04:00 +3°C° 0.1 mm 9 mps 753 mmHg 75%
    05:00 +2°C° 0 mm 8 mps 754 mmHg 76%
    06:00 +3°C° 0 mm 7 mps 755 mmHg 77%
    07:00 +2°C° 0 mm 6 mps 756 mmHg 77%
    08:00 +2°C° 0 mm 6 mps 757 mmHg 78%
    09:00 +3°C° 0 mm 6 mps 757 mmHg 78%
    10:00 +3°C° 0 mm 6 mps 758 mmHg 79%
    11:00 +3°C° 0 mm 6 mps 758 mmHg 76%
    12:00 +3°C° 0 mm 6 mps 758 mmHg 74%
    13:00 +3°C° 0 mm 6 mps 759 mmHg 72%
    14:00 +2°C° 0 mm 6 mps 759 mmHg 74%
    15:00 +2°C° 0 mm 6 mps 759 mmHg 76%
    16:00 +1°C° 0 mm 6 mps 760 mmHg 79%
    17:00 +1°C° 0 mm 6 mps 760 mmHg 80%
    18:00 -1°C° 0 mm 6 mps 760 mmHg 81%
    19:00 -1°C° 0 mm 6 mps 760 mmHg 83%
    20:00 -1°C° 0 mm 6 mps 760 mmHg 84%
    21:00 -1°C° 0 mm 6 mps 760 mmHg 85%
    22:00 -1°C° 0 mm 6 mps 760 mmHg 87%
    23:00 -2°C° 0 mm 6 mps 760 mmHg 87%

    27 November, Monday

    Time Temperature Precipitation Wind Pressure Humidity
    00:00 -2°C° 0 mm 7 mps 760 mmHg 88%
    01:00 -2°C° 0 mm 7 mps 760 mmHg 88%
    02:00 -2°C° 0 mm 7 mps 760 mmHg 89%
    03:00 -2°C° 0 mm 7 mps 760 mmHg 89%
    04:00 -2°C° 0 mm 7 mps 760 mmHg 90%
    05:00 -2°C° 0 mm 7 mps 760 mmHg 90%
    06:00 -2°C° 0 mm 7 mps 760 mmHg 90%
    07:00 -2°C° 0 mm 7 mps 760 mmHg 90%
    08:00 -2°C° 0 mm 7 mps 760 mmHg 87%
    09:00 -1°C° 0 mm 8 mps 760 mmHg 85%
    10:00 -1°C° 0 mm 8 mps 760 mmHg 83%
    11:00 -1°C° 0 mm 8 mps 760 mmHg 81%
    12:00 -1°C° 0 mm 8 mps 760 mmHg 80%
    13:00 -1°C° 0 mm 8 mps 760 mmHg 79%
    14:00 -1°C° 0 mm 8 mps 760 mmHg 79%
    15:00 -1°C° 0 mm 7 mps 760 mmHg 80%
    16:00 -1°C° 0 mm 7 mps 760 mmHg 81%
    17:00 -1°C° 0 mm 7 mps 760 mmHg 82%
    18:00 -1°C° 0 mm 7 mps 760 mmHg 83%
    19:00 -1°C° 0 mm 7 mps 760 mmHg 83%
    20:00 -1°C° 0 mm 7 mps 760 mmHg 85%
    21:00 -1°C° 0 mm 6 mps 760 mmHg 86%
    22:00 -1°C° 0 mm 6 mps 760 mmHg 87%
    23:00 -1°C° 0 mm 6 mps 760 mmHg 88%

    28 November, Tuesday

    Time Temperature Precipitation Wind Pressure Humidity
    00:00 -1°C° 0 mm 5 mps 760 mmHg 89%
    01:00 -1°C° 0 mm 5 mps 761 mmHg 90%
    02:00 -1°C° 0 mm 5 mps 760 mmHg 91%
    03:00 -1°C° 0 mm 5 mps 760 mmHg 92%
    04:00 -2°C° 0 mm 5 mps 760 mmHg 93%
    05:00 -2°C° 0 mm 5 mps 760 mmHg 93%
    06:00 -2°C° 0 mm 5 mps 760 mmHg 92%
    07:00 -2°C° 0 mm 5 mps 760 mmHg 92%
    08:00 -2°C° 0 mm 6 mps 760 mmHg 87%
    09:00 -2°C° 0 mm 6 mps 760 mmHg 82%
    10:00 -1°C° 0 mm 7 mps 760 mmHg 77%
    11:00 0°C° 0 mm 7 mps 760 mmHg 73%
    12:00 0°C° 0 mm 7 mps 760 mmHg 70%
    13:00 +2°C° 0 mm 7 mps 759 mmHg 66%
    14:00 0°C° 0 mm 7 mps 759 mmHg 68%
    15:00 0°C° 0 mm 7 mps 759 mmHg 69%
    16:00 -1°C° 0 mm 7 mps 759 mmHg 71%
    17:00 -1°C° 0.2 mm 7 mps 759 mmHg 71%
    18:00 -1°C° 0.2 mm 7 mps 759 mmHg 70%
    19:00 -1°C° 0.2 mm 8 mps 758 mmHg 70%
    20:00 -1°C° 0.2 mm 8 mps 758 mmHg 71%
    21:00 -1°C° 0.2 mm 8 mps 758 mmHg 71%
    22:00 -1°C° 0.2 mm 8 mps 758 mmHg 72%
    23:00 -1°C° 0.2 mm 8 mps 758 mmHg 73%

    29 November, Wednesday

    Time Temperature Precipitation Wind Pressure Humidity
    00:00 -1°C° 0.2 mm 8 mps 757 mmHg 73%
    01:00 -2°C° 0.2 mm 8 mps 757 mmHg 74%
    02:00 -2°C° 0.2 mm 8 mps 757 mmHg 75%
    03:00 -2°C° 0.2 mm 8 mps 757 mmHg 76%
    04:00 -2°C° 0.2 mm 7 mps 756 mmHg 77%
    05:00 -2°C° 0 mm 7 mps 756 mmHg 78%
    06:00 -2°C° 0 mm 7 mps 756 mmHg 78%
    07:00 -2°C° 0 mm 7 mps 756 mmHg 79%
    08:00 -2°C° 0.1 mm 7 mps 756 mmHg 79%
    09:00 -2°C° 0.1 mm 7 mps 756 mmHg 79%
    10:00 -1°C° 0.1 mm 7 mps 756 mmHg 79%
    11:00 -1°C° 0 mm 7 mps 756 mmHg 77%
    12:00 -1°C° 0 mm 6 mps 756 mmHg 74%
    13:00 +1°C° 0 mm 6 mps 755 mmHg 72%
    14:00 -1°C° 0 mm 6 mps 755 mmHg 73%
    15:00 -1°C° 0 mm 6 mps 755 mmHg 74%
    16:00 -2°C° 0 mm 6 mps 755 mmHg 75%
    17:00 -2°C° 0.1 mm 6 mps 755 mmHg 76%
    18:00 -2°C° 0.1 mm 6 mps 755 mmHg 77%
    19:00 -2°C° 0.1 mm 6 mps 755 mmHg 78%
    20:00 -2°C° 0.2 mm 6 mps 755 mmHg 80%
    21:00 -2°C° 0.2 mm 6 mps 754 mmHg 81%
    22:00 -2°C° 0.2 mm 6 mps 754 mmHg 83%
    23:00 -2°C° 0 mm 6 mps 754 mmHg 82%
    Show more